Probability
0 0 0 0 0 0 0 0 0 0 0 0 0 2 2 2 4 5 7 12 14 13 13 15 14 10 10 15 19 21 20 19 21 23 24 21 16 12 9 9 10 11 11 9
0 0 0 0 0 0 0 0 0 0 0 0 0 2 3 3 4 7 9 12 15 16 16 18 19 15 13 16 18 20 20 19 20 23 23 20 16 11 8 8 12 13 12 11
0 0 0 0 0 0 0 0 0 0 0 0 0 2 5 4 4 7 9 11 14 17 19 20 21 19 18 19 20 21 22 21 21 21 21 19 16 11 8 11 16 17 13 11
0 0 0 0 0 0 0 0 0 0 0 0 0 2 5 6 6 7 9 10 12 17 21 21 22 23 24 23 24 26 27 26 23 22 21 19 16 11 11 16 21 21 15 11
0 0 0 0 0 0 0 0 0 1 1 1 0 1 4 7 8 9 10 11 12 16 20 22 25 29 28 24 26 33 35 31 27 25 23 21 17 14 14 19 24 24 18 13
0 0 0 0 0 0 0 0 1 2 2 1 1 1 4 7 9 10 11 11 12 14 19 24 30 34 29 24 26 35 42 40 33 28 25 24 23 21 19 21 23 22 20 17
0 0 0 0 0 0 0 0 1 1 1 1 1 3 6 8 9 10 11 12 12 13 19 25 32 35 30 26 28 38 48 47 39 31 28 28 27 25 24 24 24 22 20 20
0 0 0 0 0 0 0 0 0 0 0 0 1 4 6 8 9 8 10 13 13 14 19 25 31 33 31 29 32 42 52 52 43 35 33 31 28 25 25 26 25 23 21 20
0 0 0 0 0 0 0 0 0 0 0 0 1 4 7 7 8 7 9 12 14 16 19 23 27 29 28 30 36 45 54 55 47 40 36 35 31 27 25 24 24 24 23 21
0 0 0 0 0 0 0 0 0 0 0 0 2 5 7 8 8 9 9 11 16 20 21 21 22 24 25 29 36 42 50 54 48 41 36 34 34 31 26 23 23 26 26 25
0 0 0 0 0 0 0 0 0 0 1 0 2 5 8 9 11 10 9 11 18 23 24 22 20 22 25 29 33 38 44 47 45 39 32 30 33 33 30 28 27 28 30 30
0 0 0 0 0 0 0 0 0 0 0 0 1 5 9 11 11 10 8 10 17 24 27 26 25 27 30 32 35 39 41 42 39 36 30 28 31 33 33 33 33 32 33 34
0 1 1 1 0 0 0 0 0 0 0 0 1 5 9 11 10 7 6 8 14 22 28 31 33 36 39 41 42 43 43 40 38 34 30 30 32 34 35 36 37 37 36 36
1 1 1 1 0 0 0 0 0 0 0 0 1 5 9 10 9 6 6 7 12 21 29 36 43 47 49 50 50 49 46 42 39 37 34 36 39 40 39 41 42 40 38 38
1 1 0 0 0 0 0 0 0 0 0 0 2 5 8 9 10 10 9 10 15 23 31 40 50 55 56 56 54 52 49 46 44 42 41 42 46 48 47 47 46 44 41 40
1 1 0 0 0 0 0 0 0 0 0 1 3 6 7 7 11 15 15 15 21 27 33 43 53 59 59 57 54 52 50 49 49 48 45 45 50 53 52 49 48 47 45 44
2 3 2 0 0 0 0 0 0 0 0 1 5 8 8 7 10 16 20 22 26 30 35 44 53 58 59 56 52 50 50 51 52 50 47 48 52 55 52 47 48 50 50 49
4 5 3 1 1 0 0 0 0 1 2 3 7 10 10 9 13 19 26 30 33 35 37 43 50 54 56 55 52 50 50 52 53 52 51 52 56 57 55 52 52 55 55 54
3 4 4 3 2 1 0 0 1 4 6 7 10 12 11 13 17 24 30 37 41 41 41 44 47 49 52 53 51 51 51 52 53 53 54 55 57 58 59 59 59 57 55 53
3 3 4 4 3 1 0 0 2 6 10 13 15 18 18 19 23 26 32 38 43 44 43 45 46 49 52 53 51 51 52 53 54 54 56 57 57 57 58 59 58 55 52 49
3 3 4 4 3 1 0 1 5 13 20 22 22 23 24 25 25 27 32 40 46 45 43 46 51 55 56 54 52 52 53 54 54 56 58 57 55 53 53 54 54 51 48 47
4 4 5 5 6 6 5 7 15 27 33 30 25 23 22 22 24 28 36 46 52 50 48 52 59 61 58 55 53 55 57 57 56 58 60 58 55 51 49 49 49 47 45 43
4 5 7 9 10 11 11 14 22 30 32 28 24 21 19 20 23 31 41 52 57 57 57 60 62 62 58 55 55 56 59 60 60 60 61 60 58 52 48 47 45 44 41 38
4 6 11 14 13 11 12 15 18 21 21 21 20 20 20 23 27 34 44 52 57 59 60 63 63 62 60 58 56 56 59 61 62 60 60 60 56 50 46 45 43 41 39 36
4 7 12 17 17 14 14 14 14 15 17 19 21 21 22 24 28 35 44 49 52 54 57 61 64 64 63 62 59 57 59 62 62 59 57 53 48 44 42 41 39 36 33 31
3 6 12 18 22 20 18 16 15 15 17 21 23 24 24 24 26 35 43 47 48 50 54 58 62 64 64 63 61 59 60 63 62 59 55 48 41 40 40 39 36 31 26 23
Wind_Speed
11 9 9 9 11 9 5 2 2 5 6 4 7 11 13 13 13 13 13 13 12 12 12 12 11 10 10 8 7 6 5 4 3 2 2 2 1 1 2 2 3 2 1 1
11 11 10 9 9 7 5 3 3 5 7 4 4 7 11 12 13 13 13 12 13 14 13 12 11 10 10 9 8 6 5 5 4 3 2 2 2 2 2 2 3 2 1 0
14 8 9 10 10 8 7 6 5 4 5 4 2 3 7 12 11 12 13 14 14 14 15 14 12 11 11 10 9 7 6 6 4 4 2 2 2 1 1 2 2 2 1 1
13 10 11 11 10 8 7 6 7 6 5 4 4 3 7 10 12 12 12 12 13 14 15 15 14 12 11 11 10 8 7 6 5 4 3 3 2 2 2 2 2 2 2 1
13 12 14 12 10 8 7 7 9 9 6 5 6 6 6 9 10 12 12 12 12 14 15 15 15 13 11 11 11 9 8 6 5 4 3 2 2 1 1 2 3 3 2 1
14 12 13 13 11 9 8 8 10 9 7 7 7 6 5 7 9 10 11 11 11 13 14 14 14 13 11 11 10 11 9 7 6 5 4 3 2 1 1 1 1 2 2 2
15 15 13 12 12 11 9 7 6 6 6 7 6 5 3 6 8 9 10 11 11 12 13 14 14 14 12 11 10 10 10 8 7 6 5 4 3 2 2 2 2 2 2 2
15 14 15 12 12 10 10 11 8 7 6 5 4 2 3 6 6 8 10 10 11 11 12 13 14 14 13 12 10 10 10 9 8 7 5 4 4 3 2 3 2 1 1 2
11 12 12 13 12 12 12 10 11 9 8 6 3 3 4 6 7 9 10 11 11 11 13 13 13 13 14 13 12 11 11 9 8 7 6 5 4 4 3 3 3 2 1 2
12 9 12 13 12 13 13 10 7 7 6 6 6 5 4 6 7 7 9 11 10 11 12 11 12 12 11 11 11 10 11 10 8 7 6 7 6 4 3 2 3 2 1 1
13 10 10 12 13 12 12 12 9 6 5 6 5 3 4 5 6 7 8 9 10 10 11 11 10 10 11 11 11 10 10 10 9 8 7 5 6 6 5 3 3 3 2 2
10 9 10 12 11 12 12 12 11 8 6 5 5 3 2 3 4 4 6 7 9 9 10 10 10 10 10 10 10 10 10 10 9 8 7 6 5 5 5 5 4 3 3 3
5 6 8 11 12 13 14 13 13 11 7 6 6 4 4 4 3 5 6 6 7 8 8 9 9 8 7 8 8 9 9 9 10 9 8 7 6 6 5 5 4 4 3 3
5 8 10 12 10 10 12 13 13 12 8 7 7 5 6 5 4 4 6 6 8 8 7 8 8 7 6 6 6 6 7 8 8 8 8 7 7 6 6 4 4 4 4 3
6 10 12 13 14 12 12 13 13 13 12 10 8 8 7 5 5 6 7 7 7 7 8 7 7 7 6 6 6 5 6 6 6 7 7 6 6 5 5 5 5 4 4 4
6 9 11 14 16 15 14 13 14 14 12 10 7 4 3 2 3 5 5 5 5 5 6 6 6 6 6 6 6 6 6 5 6 6 6 5 5 5 5 5 5 4 4 4
7 7 10 12 14 14 16 13 13 12 11 10 6 4 4 3 3 4 5 4 4 4 4 4 5 5 5 6 5 6 6 6 6 6 6 6 6 6 5 6 5 5 4 4
7 6 7 11 12 17 10 10 11 9 8 7 5 5 4 4 4 4 5 5 4 3 3 4 4 5 5 5 5 4 6 6 6 6 6 6 6 6 6 5 5 4 4 4
8 7 8 10 12 14 10 10 10 8 7 5 3 3 3 2 2 3 3 4 4 3 3 2 3 4 5 6 5 5 5 6 6 6 6 6 6 5 5 5 4 4 3 4
9 7 9 10 12 13 8 8 8 7 7 4 2 1 1 1 2 1 2 4 3 3 2 2 3 3 3 4 5 5 5 5 5 5 4 4 4 5 5 4 4 3 3 4
12 11 12 11 12 9 7 6 7 8 2 2 1 3 3 3 2 3 3 4 4 3 3 3 3 2 3 4 4 4 3 3 3 3 3 3 4 4 4 4 4 3 4 4
11 11 11 11 12 9 5 4 2 2 4 4 2 2 2 3 3 3 4 4 3 2 2 3 3 3 4 4 4 4 3 3 3 3 3 3 3 4 4 3 3 4 4 5
8 7 6 5 4 1 3 3 3 4 4 5 4 3 2 2 2 3 3 2 2 1 1 2 3 4 4 3 3 3 3 3 3 4 3 3 3 3 3 4 4 4 3 4
6 4 4 4 4 2 2 2 3 3 3 4 4 4 4 4 4 3 2 2 1 1 1 1 2 3 3 3 2 2 2 3 3 3 3 3 3 3 2 2 3 3 4 4
5 4 4 4 3 2 1 2 2 2 3 4 5 4 4 4 4 4 2 1 1 1 1 1 1 2 2 3 3 2 2 2 2 2 3 3 3 3 2 2 2 3 3 3
5 4 5 4 2 3 2 2 4 3 3 4 5 5 4 3 4 4 2 1 0 1 0 1 1 2 2 2 2 2 2 2 2 3 3 3 3 3 3 3 2 1 2 2
Wind_Direction
226 223 224 232 232 237 242 229 126 134 139 151 150 146 159 165 168 167 169 169 169 168 163 161 162 158 154 149 152 155 153 146 156 169 167 163 147 169 140 137 127 125 92 79
229 223 225 238 243 243 257 258 218 161 156 168 168 156 158 167 180 174 171 174 171 168 165 163 165 164 160 157 160 158 158 160 174 167 168 176 165 176 146 126 127 133 115 27
232 221 222 230 234 235 235 240 238 206 170 174 209 180 172 172 177 175 173 176 175 172 169 168 170 171 168 164 165 168 166 165 176 170 178 181 163 167 142 139 141 139 146 159
232 229 234 239 237 232 240 244 254 238 223 207 205 205 185 180 175 175 176 178 177 172 169 170 173 173 171 168 167 161 158 162 164 171 188 189 181 180 175 160 146 151 163 176
231 223 231 238 239 231 247 252 263 264 244 235 220 231 187 175 174 174 177 179 176 172 171 172 172 170 172 170 166 161 158 161 166 180 191 205 196 193 160 144 153 161 173 190
242 234 237 239 243 235 242 256 267 272 265 245 229 240 182 175 175 174 173 175 176 172 169 168 165 164 171 171 168 163 159 164 170 180 186 198 212 202 161 164 170 187 171 171
234 236 237 234 235 229 225 239 249 250 241 246 236 237 172 166 167 170 169 170 171 170 165 164 165 166 170 172 170 161 158 166 172 180 188 189 204 203 188 212 200 217 177 156
226 226 226 226 233 237 230 229 232 241 241 231 234 238 170 155 158 163 158 159 162 165 163 165 167 167 172 173 170 163 160 166 173 181 187 187 193 207 204 208 212 219 203 141
237 228 221 222 226 235 234 237 242 255 269 274 233 192 187 160 151 158 152 152 160 166 166 167 168 169 173 173 172 169 162 165 174 181 181 183 188 211 213 186 208 211 201 168
251 247 229 216 221 228 238 240 244 241 259 264 255 234 205 160 170 166 155 153 159 164 163 168 168 168 170 170 168 167 164 167 173 180 186 186 189 199 204 199 197 198 202 183
245 248 243 222 215 221 224 233 243 248 250 250 250 240 151 176 181 168 160 156 159 157 157 164 167 166 166 167 167 167 166 167 174 180 184 192 179 188 190 198 200 197 206 198
240 247 246 235 226 229 232 234 240 238 236 253 258 257 178 170 187 169 155 154 153 155 155 154 159 165 168 168 169 168 171 172 177 179 180 189 182 181 186 193 195 193 195 204
286 263 245 238 225 224 230 229 236 243 240 243 242 221 171 176 176 163 144 146 146 146 150 149 148 151 159 166 165 167 172 173 177 180 182 182 183 186 193 194 184 187 195 205
267 250 250 247 242 221 226 231 232 239 238 237 232 202 184 186 170 154 150 154 148 146 146 144 139 144 153 159 154 160 168 172 176 176 181 182 187 189 190 189 184 186 193 207
252 249 251 259 264 251 243 235 234 238 241 234 224 210 196 177 172 153 145 143 141 145 142 136 141 147 156 159 153 160 170 169 173 174 181 183 182 182 184 187 192 190 196 212
245 266 260 255 257 256 253 245 236 238 244 243 227 217 197 172 152 133 129 141 143 137 136 139 142 151 159 160 163 165 168 169 168 177 184 178 178 181 189 192 192 193 198 213
240 253 260 255 250 248 248 247 241 232 233 239 227 207 177 177 153 143 142 146 138 135 141 147 146 156 162 165 166 168 171 171 172 180 185 180 180 185 191 201 195 198 202 210
255 269 259 254 252 246 249 253 251 249 250 235 212 193 197 194 157 136 124 119 116 135 148 151 156 164 174 167 161 167 174 174 176 183 189 185 186 190 190 196 198 199 201 209
237 243 254 253 244 241 242 248 251 247 251 250 228 210 212 177 133 96 82 94 102 102 108 136 154 175 171 166 164 168 175 174 179 187 191 188 188 191 196 200 199 199 206 213
218 224 243 248 245 244 238 249 261 248 238 260 265 329 30 172 204 83 85 91 89 95 107 120 134 159 161 153 152 162 174 172 185 189 189 187 186 191 197 201 200 202 209 218
210 214 230 243 249 255 269 272 266 242 239 353 23 54 49 48 32 62 71 82 86 105 123 125 130 137 127 126 134 152 160 181 181 174 177 185 191 195 201 198 194 197 208 217
222 215 219 233 241 243 297 285 291 22 30 25 32 48 34 40 52 52 70 76 83 79 117 130 126 122 119 126 139 158 173 175 166 165 176 193 203 215 206 197 204 208 213 216
230 235 232 234 231 341 3 59 62 36 29 21 16 24 8 359 31 44 61 73 80 80 80 112 116 118 127 139 150 180 182 165 166 167 179 193 208 223 211 202 211 218 220 226
218 237 241 235 209 229 325 32 52 41 16 6 3 1 354 355 355 8 64 54 40 56 63 101 120 134 138 142 149 185 163 158 163 174 177 187 207 214 213 218 216 218 225 232
273 245 242 237 233 247 259 342 4 10 355 345 339 337 343 347 350 355 17 87 44 23 49 115 141 141 138 137 144 157 158 157 175 185 187 203 212 209 211 217 226 226 238 237
269 271 258 254 286 290 307 348 344 334 322 324 327 328 324 330 331 335 341 31 324 285 254 166 156 154 151 150 151 154 180 176 185 198 204 211 219 211 206 205 225 278 248 250